RH
31 31 32 32 33 34 34 35 36 36 38 42 45 49 52 54 56 54 51 49 50 55 63 68 65 61 60 59 60 57 52 52 55 52 43 36 37 39 37 37 36 35 38 40 36 28 23 20 20 22 22 22 24 24 19 15 17 19 17 14 12 14 15 12 12 12 12 12 10 14 17 15 19 25
32 33 34 35 35 36 37 38 39 41 45 48 51 52 53 54 55 53 52 52 56 62 65 65 62 61 63 63 61 56 52 54 53 46 38 39 46 47 43 42 40 40 42 40 32 25 21 19 20 21 21 23 27 27 22 16 17 19 17 15 13 13 15 12 12 12 11 12 11 12 16 15 17 22
34 35 36 37 38 39 40 41 44 48 50 51 52 52 53 53 52 51 54 58 61 62 63 64 65 66 67 67 64 59 55 54 50 43 40 47 55 53 48 45 42 44 45 38 30 24 20 19 20 21 20 23 27 28 24 17 17 20 17 15 13 13 15 12 11 12 11 13 12 11 15 16 17 20
36 37 39 41 41 43 45 47 50 52 52 51 51 52 52 51 51 53 57 60 61 63 66 70 71 71 72 72 68 61 57 56 50 43 45 55 60 56 52 48 46 49 46 36 28 22 19 20 20 20 20 22 26 26 23 18 17 19 18 16 14 13 15 13 11 12 12 13 13 11 14 16 18 20
39 40 42 43 45 47 49 51 53 52 52 51 51 52 52 51 53 57 60 62 65 69 73 77 77 77 79 77 68 61 60 60 53 47 52 61 62 58 55 52 51 53 46 34 27 21 19 21 20 19 19 20 24 25 23 19 17 19 19 17 15 14 15 14 11 12 12 13 14 12 14 16 18 19
42 43 45 47 49 51 51 52 53 52 52 52 53 54 53 54 58 62 66 69 72 75 79 82 83 85 85 78 67 63 66 64 55 52 60 65 64 60 57 55 56 55 44 31 25 21 20 20 18 19 19 20 24 24 22 20 17 17 19 18 16 14 16 15 12 13 13 13 14 12 13 16 18 19
44 46 48 50 51 52 52 53 53 53 54 55 57 58 57 60 65 70 75 78 79 82 83 86 88 90 87 77 69 68 69 63 56 57 65 67 65 64 60 58 59 54 40 29 24 21 20 20 18 18 20 21 24 24 23 21 17 17 18 18 17 14 15 16 13 13 13 13 14 12 13 16 17 19
47 49 51 52 52 53 53 55 55 56 59 61 63 64 65 69 73 79 84 83 84 88 89 89 91 93 90 80 73 72 68 62 59 62 67 68 68 67 62 61 59 49 36 28 25 22 22 22 20 20 22 22 23 24 23 21 18 17 17 18 19 15 15 16 13 13 13 13 14 12 13 16 17 19
50 51 53 54 55 55 56 58 59 62 66 67 68 70 71 74 79 86 88 85 89 94 92 92 94 97 94 82 74 71 66 62 63 67 71 70 69 67 63 63 58 45 36 32 27 24 25 24 21 22 23 22 23 22 22 22 19 18 17 17 19 16 15 16 14 14 13 13 14 13 13 15 17 19
52 54 56 56 57 59 59 61 65 68 71 72 71 72 73 77 84 88 87 87 93 95 93 95 99 102 94 79 71 69 64 63 67 72 75 72 68 67 66 66 59 46 39 35 28 26 27 24 21 23 24 23 22 21 22 23 20 19 17 16 18 17 15 15 15 15 14 13 14 13 13 15 17 20
55 56 58 59 60 62 63 66 72 76 77 75 73 72 74 81 87 86 85 89 94 95 96 100 103 102 89 74 69 68 64 66 69 71 74 73 73 72 70 70 62 49 42 35 29 28 27 24 23 24 26 25 22 20 21 23 22 20 18 16 17 16 15 15 14 15 15 14 15 14 14 15 16 20
57 58 60 62 62 65 68 72 77 81 80 76 75 75 78 85 87 84 85 91 95 96 99 103 105 99 82 70 69 68 67 70 71 71 72 73 74 74 74 75 64 49 41 34 30 29 27 26 26 27 28 27 23 21 20 22 23 21 19 18 16 15 15 15 14 15 15 14 15 14 14 15 16 19
58 61 63 65 66 68 72 75 79 82 80 76 76 79 84 89 88 86 89 94 96 99 103 105 104 92 75 70 72 71 71 73 73 72 69 68 72 75 80 78 62 48 41 34 31 30 29 29 29 29 30 27 23 21 19 20 22 21 20 19 17 14 13 13 13 14 15 15 15 14 14 15 15 19
61 64 66 68 70 72 75 77 79 80 79 77 79 84 90 92 89 89 94 97 99 103 105 104 98 84 73 72 75 75 75 75 71 68 67 69 74 81 85 76 59 49 43 35 33 32 31 32 32 30 29 26 23 21 19 18 20 21 20 18 17 14 12 12 12 12 14 15 15 14 14 15 15 18
63 67 70 72 74 75 76 76 77 78 77 77 84 90 93 93 91 92 96 98 101 104 104 101 94 81 73 74 77 78 77 74 68 63 67 73 76 80 83 71 56 49 42 35 35 34 33 35 33 30 29 26 24 22 19 18 18 20 20 17 15 14 11 11 11 11 12 13 14 14 14 14 14 17
67 71 73 75 75 74 75 76 76 76 76 81 90 95 94 94 94 96 97 97 101 104 102 98 92 80 74 77 79 78 76 71 64 61 68 73 72 75 75 62 53 48 40 35 37 35 35 35 32 29 28 25 25 24 21 19 17 18 19 17 14 13 11 11 10 10 11 11 14 15 13 14 14 15
69 72 76 77 75 74 76 78 77 77 79 87 95 97 96 96 97 100 99 97 101 104 100 97 90 78 74 78 79 78 76 67 58 61 71 73 71 71 66 57 52 46 37 36 37 37 38 36 31 29 27 25 27 26 23 21 18 16 17 16 14 12 11 11 9 9 10 10 12 15 13 14 14 13
70 73 79 80 76 75 79 81 78 79 84 91 96 97 99 99 99 100 98 99 103 102 98 96 87 75 75 80 80 79 75 62 54 62 73 75 74 68 57 52 50 42 35 35 36 39 43 40 33 29 27 26 29 29 26 24 20 18 16 13 13 12 11 11 10 9 10 9 10 13 13 14 14 12
73 78 84 85 80 79 83 84 81 82 88 93 95 96 98 99 99 96 97 104 107 101 97 95 83 74 77 81 81 81 72 56 51 60 68 72 72 63 52 50 49 41 34 35 37 42 46 43 35 29 27 27 30 32 31 27 23 21 17 13 12 11 10 11 10 9 10 9 9 11 11 13 14 11
79 84 90 90 86 84 86 85 83 85 91 94 94 93 94 96 96 92 95 107 107 98 97 93 79 74 80 82 83 82 69 52 49 57 62 65 66 60 53 52 49 40 35 35 39 45 48 46 39 31 27 27 31 34 35 33 27 23 19 14 11 10 9 10 10 9 10 10 8 9 9 10 13 12
86 89 93 95 93 90 88 84 84 89 93 94 92 89 91 93 92 91 99 107 102 94 96 92 78 76 82 83 84 81 66 50 48 54 58 59 59 57 56 55 48 39 36 36 40 47 50 48 43 36 30 28 30 36 40 38 33 26 21 15 10 10 9 9 10 9 10 10 8 8 8 8 11 12
91 93 97 101 98 94 88 83 86 93 96 94 89 87 90 90 89 95 105 106 98 96 98 89 77 78 84 85 85 81 64 49 47 51 52 52 53 53 56 56 47 37 35 35 40 49 53 50 45 42 39 34 32 35 40 42 37 28 23 17 11 9 9 8 10 9 9 10 8 7 8 6 8 11
94 96 99 102 101 96 89 87 92 98 99 95 88 86 89 88 90 101 110 105 98 100 99 87 77 80 86 87 87 80 63 49 48 50 47 46 48 50 55 55 46 37 36 36 40 49 55 53 46 41 42 42 39 37 37 41 40 31 24 19 12 9 8 7 8 9 9 10 8 7 7 6 6 9
94 95 96 100 101 96 91 93 98 101 101 95 87 86 88 88 95 106 110 105 103 103 98 87 79 82 88 89 87 80 62 48 48 50 47 44 46 49 55 54 44 37 37 36 39 46 53 54 48 40 37 40 42 39 34 36 38 32 25 21 15 11 10 7 7 8 8 9 8 6 6 6 5 7
92 92 94 98 100 97 97 102 102 102 102 95 88 88 88 91 100 107 107 107 109 106 97 87 81 85 91 91 89 79 61 48 48 51 49 46 45 49 55 54 44 37 36 35 37 43 49 51 50 46 43 42 43 43 37 33 33 30 24 21 17 14 12 9 7 7 7 7 7 6 6 6 5 5
93 94 96 97 98 100 105 108 105 103 103 97 91 90 90 95 105 106 104 109 113 106 96 87 83 89 94 94 89 79 62 50 50 52 52 49 46 49 55 53 42 36 37 36 36 41 46 48 47 48 49 47 44 45 42 37 34 30 24 20 17 15 14 11 7 7 6 6 7 6 5 6 5 5
100 103 100 96 98 103 109 112 108 104 103 99 94 92 94 101 106 103 104 112 112 102 94 87 86 92 97 94 88 79 65 53 51 54 56 53 48 49 56 53 41 34 36 37 36 40 45 45 44 44 48 49 46 45 46 43 38 31 24 20 16 14 13 11 8 7 7 6 6 6 5 5 5 5
108 111 105 100 101 103 108 114 110 104 104 102 97 95 98 103 106 105 108 113 107 97 91 87 88 94 98 94 87 78 68 58 53 54 59 57 51 49 56 55 42 34 36 37 36 39 44 46 44 41 43 48 49 46 45 44 39 32 25 20 16 14 13 11 8 6 7 6 5 6 5 5 6 5
108 111 107 103 102 101 107 113 109 103 105 103 97 98 102 105 108 110 112 109 101 95 90 86 88 94 96 92 85 77 70 63 56 55 59 61 54 50 55 57 44 33 36 38 36 38 43 48 48 42 39 44 49 49 46 43 39 33 26 21 18 14 12 12 9 6 7 7 6 6 6 5 5 6
105 108 106 103 101 101 106 111 105 101 104 103 99 100 103 106 110 113 109 102 96 92 87 85 88 94 95 90 82 74 70 65 59 57 60 63 59 54 56 59 47 35 35 38 37 37 41 47 51 49 42 41 46 50 48 45 41 34 26 22 20 16 12 11 10 8 7 7 6 6 6 5 5 6
103 106 105 102 101 101 104 106 101 100 105 105 101 100 104 108 111 109 102 96 93 89 85 85 89 93 92 85 77 71 68 64 60 57 60 64 63 57 59 63 55 41 36 37 38 38 39 43 50 53 50 47 48 51 49 46 42 36 27 22 20 18 14 11 9 9 8 8 7 6 7 6 5 6
102 105 104 101 101 102 103 102 100 104 108 105 99 99 104 107 107 102 95 91 90 87 84 85 89 89 85 78 72 69 66 62 60 58 60 65 65 58 59 65 60 47 39 39 40 38 38 41 46 49 51 53 54 52 49 45 42 38 31 24 21 19 16 12 10 9 8 8 8 7 7 8 6 6
102 103 103 102 101 102 101 100 101 106 107 102 98 99 102 102 100 95 89 88 87 84 82 85 86 82 75 71 70 69 65 61 60 59 61 66 66 60 60 65 60 49 42 41 42 41 40 41 45 46 48 49 52 54 51 46 43 41 37 31 25 22 20 15 11 10 9 8 8 8 8 8 7 6
102 102 102 101 101 101 101 101 105 108 105 101 99 98 98 96 93 89 86 85 83 81 82 82 78 72 68 67 68 69 66 62 61 60 62 67 67 62 62 64 57 48 43 41 42 43 43 43 45 47 47 45 46 52 55 52 46 43 41 37 31 26 24 20 14 11 10 9 9 8 8 9 8 7
102 101 101 101 101 101 101 103 107 108 105 99 96 95 95 92 88 85 84 82 80 79 78 74 68 65 67 69 69 68 66 63 61 59 62 67 67 63 64 63 54 46 44 43 42 43 44 45 47 51 51 48 45 50 58 61 57 51 47 43 37 32 29 26 19 13 11 10 9 9 9 8 9 9
102 101 100 100 99 99 100 104 109 110 103 95 93 94 93 88 84 83 82 80 78 77 70 63 62 67 70 70 68 67 65 62 60 60 63 67 66 63 64 62 52 44 43 44 43 43 43 43 46 51 55 55 51 51 56 63 64 59 53 48 45 39 32 28 24 17 11 10 9 9 9 9 10 10
100 99 99 99 98 98 101 106 110 106 95 89 91 93 89 84 82 81 79 78 76 69 61 60 65 68 66 64 63 63 62 61 60 61 65 66 64 64 65 62 52 45 44 44 43 44 43 42 44 49 54 58 59 56 55 58 62 63 59 56 55 48 35 28 28 23 14 11 10 9 9 10 11 11
95 97 98 98 97 99 104 107 104 94 86 87 91 91 86 83 81 78 76 74 66 59 59 63 64 60 56 55 57 58 59 59 60 63 64 63 62 65 65 61 53 47 45 44 43 43 44 43 43 46 52 58 62 60 57 58 62 67 67 63 60 53 38 26 26 28 21 14 11 11 11 10 11 13
95 99 99 97 99 103 105 102 92 85 86 92 94 90 85 82 79 76 72 64 56 57 63 62 54 48 47 48 52 54 55 57 59 62 62 61 62 64 63 58 52 48 47 45 43 43 44 44 43 45 50 56 59 57 55 56 60 66 70 66 57 51 43 30 25 28 27 20 13 11 12 12 10 12
100 102 99 99 102 104 100 93 86 87 93 96 92 87 83 80 77 72 61 52 53 61 61 51 42 41 42 44 48 52 53 56 60 61 60 59 62 63 59 52 49 49 49 46 43 42 44 45 45 45 47 51 55 56 54 52 51 54 59 58 51 47 48 42 31 26 26 25 19 12 11 13 12 11
102 100 99 101 103 99 93 90 90 93 96 92 87 83 80 77 72 61 49 49 58 61 51 40 37 39 40 43 48 51 52 56 59 59 59 60 61 59 53 47 46 50 50 47 44 41 42 44 44 44 46 49 53 57 55 51 47 46 49 53 53 50 50 50 43 33 27 26 25 18 12 12 13 12
98 98 100 101 100 95 91 91 92 94 93 88 83 81 77 72 63 50 44 53 61 53 41 37 39 40 41 44 48 50 52 56 58 57 59 61 60 54 48 43 45 49 50 49 46 42 41 42 43 44 46 48 51 55 56 55 55 52 50 53 57 55 51 51 51 44 33 26 26 25 18 13 13 13
97 100 102 100 96 92 91 92 93 93 90 84 79 77 73 65 53 43 46 57 57 45 37 39 41 42 44 47 49 50 51 54 56 57 59 59 56 50 45 42 43 48 50 49 47 44 42 43 44 44 45 48 49 53 56 57 58 58 54 52 55 57 55 53 53 52 46 35 28 28 25 18 14 13
100 103 102 97 92 90 92 95 94 90 85 79 75 74 68 57 46 44 52 59 52 40 38 42 43 44 47 49 50 52 53 54 56 57 57 55 51 46 43 42 43 47 50 48 46 45 43 43 43 43 44 47 49 52 56 58 58 58 56 53 53 56 57 55 52 52 52 45 35 30 29 25 18 14
101 100 95 90 90 93 96 96 91 86 81 76 74 72 64 51 45 50 58 58 48 39 40 44 44 45 49 51 52 53 53 54 56 55 52 49 45 42 41 42 44 47 49 47 45 45 44 44 45 45 45 47 50 51 54 57 58 58 55 52 51 54 58 59 55 51 51 51 44 35 30 28 25 20
Wind_Speed
54 54 54 55 56 56 56 56 55 54 53 53 53 54 54 54 55 55 55 55 56 58 60 63 65 67 69 72 74 76 78 78 77 75 73 70 69 67 65 63 62 61 60 59 57 54 50 46 43 41 40 42 45 50 50 45 40 41 44 42 37 32 33 33 32 35 38 40 45 50 55 58 60 64
53 53 53 54 54 55 54 53 53 53 53 53 53 54 54 54 54 55 56 56 58 60 61 64 66 69 72 75 77 79 80 79 77 74 71 70 70 69 66 65 64 62 61 59 56 53 49 46 43 41 39 40 43 47 48 44 39 40 42 41 37 32 32 33 31 32 35 38 42 48 52 56 59 62
51 52 52 53 53 52 52 52 53 53 53 53 53 53 53 53 54 54 55 57 59 61 62 65 68 71 74 77 80 82 82 80 76 73 72 71 71 70 68 66 65 64 63 60 56 52 48 46 44 41 39 39 40 43 44 42 37 37 40 39 35 31 32 33 30 30 33 36 40 46 51 54 58 62
50 50 50 50 51 51 52 52 52 53 53 53 53 53 53 54 54 55 56 58 60 62 64 67 70 73 76 79 82 84 83 81 77 74 73 72 72 71 69 67 66 65 64 60 56 52 49 47 45 41 39 38 38 39 40 39 35 34 37 37 34 30 30 32 30 28 31 34 39 45 49 53 58 62
48 48 48 49 50 51 51 52 52 52 53 53 53 53 54 54 55 56 58 60 62 64 67 69 72 75 77 80 83 84 84 83 79 75 73 72 73 72 70 68 67 66 64 60 56 53 50 48 45 41 39 37 37 37 37 37 34 32 34 35 33 29 29 31 29 27 29 34 38 44 48 53 58 62
46 46 47 49 50 51 51 51 52 52 53 53 53 54 55 56 57 58 60 62 64 66 68 71 73 76 78 81 84 85 85 82 78 75 73 73 73 72 70 69 67 67 64 60 56 53 51 49 45 42 40 39 38 37 37 35 33 30 30 32 32 28 27 30 29 27 29 33 37 42 47 52 59 62
45 46 47 49 50 50 51 51 51 52 53 53 54 55 56 57 58 60 62 64 66 68 70 72 75 77 79 82 85 86 84 81 76 74 73 73 73 72 70 69 67 66 63 59 57 55 53 51 47 45 43 41 39 38 36 34 32 30 27 29 31 28 26 28 29 27 28 32 36 41 46 52 58 62
45 46 47 49 49 50 50 51 51 52 53 54 55 56 57 58 60 61 63 65 67 69 71 74 76 78 81 83 85 85 82 78 75 73 73 73 73 72 70 68 67 65 62 60 59 57 56 54 51 48 45 43 39 37 35 33 31 29 26 25 28 28 26 27 28 27 28 32 36 40 46 52 58 62
45 46 48 48 49 50 50 51 52 52 53 55 56 57 58 59 60 62 63 65 67 70 72 74 77 79 81 83 84 83 79 75 74 74 74 73 72 71 70 69 67 65 63 62 61 59 58 56 52 49 46 44 40 36 33 32 30 28 26 23 25 27 26 25 27 28 28 31 35 40 46 52 58 62
45 46 47 48 49 50 51 51 52 53 54 56 57 58 59 60 61 62 64 66 68 70 72 75 77 79 81 83 83 80 75 73 72 74 74 73 71 70 70 70 68 66 64 63 62 60 58 56 52 49 47 45 41 35 32 31 29 28 26 22 21 25 26 25 26 27 28 31 34 39 45 52 58 62
45 46 48 48 49 50 51 52 53 54 56 57 58 59 59 60 62 63 65 67 69 71 73 75 77 79 81 82 81 78 74 72 72 72 72 73 72 70 68 69 68 66 65 63 62 60 58 55 53 50 48 46 43 37 31 28 28 27 26 23 20 21 25 25 25 27 29 31 34 39 45 51 58 62
45 47 48 49 50 51 52 53 54 56 57 58 59 59 60 61 62 64 66 67 69 71 73 75 77 79 81 82 80 77 74 73 73 72 71 70 70 69 68 68 67 65 64 63 61 59 57 55 53 51 49 47 44 39 32 27 26 25 24 23 20 19 22 25 25 26 29 31 34 38 44 51 57 62
46 47 48 50 51 52 53 54 55 57 58 59 60 60 61 62 63 65 67 68 70 72 74 76 77 79 80 81 79 76 73 73 72 71 70 68 68 68 68 67 65 64 64 63 62 60 57 55 53 51 49 47 43 39 33 27 25 24 22 22 22 19 19 23 25 26 29 32 34 38 44 50 57 62
46 48 49 50 51 52 54 55 56 58 59 60 60 61 62 63 64 66 67 69 71 73 74 76 77 79 80 80 77 74 73 73 72 70 68 67 66 66 66 66 65 64 64 63 62 61 57 54 53 50 48 46 43 39 34 28 24 23 21 20 21 20 19 21 25 27 29 32 35 38 44 50 57 63
47 48 50 51 52 53 54 56 57 58 59 60 61 62 63 64 65 66 68 70 71 73 74 76 77 79 80 79 75 73 73 73 72 69 67 65 64 63 62 62 62 62 62 61 61 60 57 54 51 49 46 45 43 40 36 30 25 22 21 20 19 20 20 20 23 27 28 32 35 39 43 50 57 63
48 49 50 51 52 54 55 57 58 59 60 61 62 63 64 65 66 67 68 70 72 73 74 75 77 79 79 77 74 72 72 72 70 67 66 64 62 60 59 58 59 59 59 59 59 59 57 54 51 48 45 43 42 40 37 34 28 23 20 20 19 19 20 20 22 25 28 31 35 38 42 48 56 62
48 49 50 52 53 55 56 58 59 59 61 61 62 64 65 66 67 68 69 71 72 73 74 75 77 79 78 75 73 72 72 70 68 65 64 63 61 59 57 56 57 56 55 56 56 56 56 55 52 48 45 42 41 40 39 36 33 27 21 19 19 18 19 21 21 23 27 30 33 38 42 47 54 61
49 50 51 53 55 56 57 59 59 60 61 62 63 64 65 67 67 68 70 71 73 74 75 75 77 78 77 74 72 71 70 68 65 63 62 61 60 58 55 55 55 54 53 53 54 54 55 55 54 49 45 42 40 40 40 38 36 32 27 22 19 17 18 20 21 22 25 29 33 38 42 47 53 60
51 52 53 55 56 57 58 60 60 60 61 62 64 65 66 67 67 68 70 72 73 74 75 75 77 77 75 73 72 71 69 66 63 61 60 59 58 57 55 54 55 55 53 52 52 52 52 54 55 51 45 41 39 39 40 39 38 36 32 27 22 18 17 17 20 21 24 28 33 38 42 46 51 58
52 53 54 56 57 57 59 61 61 61 62 63 65 65 66 67 68 68 69 71 73 74 74 76 77 77 75 73 71 70 67 64 61 60 59 58 57 56 55 54 54 54 53 52 52 51 50 51 54 53 48 41 38 38 39 40 40 39 37 32 26 22 19 17 17 20 24 28 32 37 41 45 49 55
53 54 56 57 57 58 60 61 61 62 63 64 65 66 67 68 68 69 70 72 73 74 75 76 77 76 74 72 71 69 65 62 59 58 58 57 56 55 55 54 53 51 51 51 51 51 50 49 51 53 51 44 38 36 37 39 40 41 40 36 30 25 22 18 16 18 23 27 31 36 40 44 47 52
54 55 57 58 59 59 61 62 62 63 64 65 67 67 68 69 69 70 71 73 74 75 75 76 77 76 74 72 70 68 64 60 58 56 55 55 54 54 54 53 52 50 49 49 49 50 50 49 48 48 49 48 43 37 35 37 40 40 41 39 35 29 25 20 17 16 21 27 31 34 38 42 45 49
55 56 57 59 60 60 61 62 63 64 65 66 68 69 69 69 69 70 72 74 75 75 76 77 77 75 73 72 70 67 63 59 57 55 54 54 53 53 53 52 50 49 48 49 48 48 48 48 47 44 42 42 42 39 35 35 37 39 40 40 38 34 28 22 16 15 18 25 30 32 35 39 43 46
56 57 58 59 60 61 62 63 64 65 66 67 69 70 70 70 70 71 72 74 75 76 76 77 77 75 73 72 70 67 62 59 57 55 55 54 53 53 53 52 49 47 46 46 46 46 45 46 47 45 41 37 37 38 37 34 33 34 37 39 39 37 33 26 18 14 16 22 27 30 32 35 39 43
56 57 58 59 61 62 62 63 65 66 67 68 70 71 71 70 70 71 72 74 75 76 77 78 77 75 73 71 69 66 62 59 57 56 56 55 53 52 53 52 49 46 45 45 44 44 43 43 44 45 44 40 36 37 39 36 33 32 34 37 37 36 34 31 23 16 14 19 24 27 29 31 34 39
57 58 59 60 61 63 63 64 66 67 68 69 70 71 71 71 71 72 73 74 75 76 77 78 77 75 73 71 69 66 62 60 58 57 57 56 55 53 53 51 48 45 45 44 44 44 42 41 41 41 41 41 38 36 38 38 37 35 34 35 36 34 33 31 26 19 15 17 20 23 25 27 30 35
58 59 60 60 61 63 64 66 67 68 69 70 71 72 72 71 71 72 73 74 75 76 77 78 77 75 73 71 68 65 62 60 59 58 57 57 56 54 53 52 48 44 44 44 44 44 43 40 40 39 38 39 38 36 36 37 37 36 36 36 35 32 31 30 25 19 16 16 18 20 22 24 27 31
58 60 61 61 61 63 65 67 68 69 70 71 72 72 72 72 72 73 74 74 75 76 77 77 76 74 73 70 67 64 61 60 59 58 57 57 57 54 53 52 50 45 44 44 44 44 43 42 41 39 37 36 36 36 35 34 34 34 35 36 35 32 30 29 24 18 16 16 16 17 19 22 25 28
59 60 62 62 62 63 65 67 69 69 70 71 72 72 72 72 73 73 74 75 76 77 77 77 76 74 72 70 67 63 60 59 59 58 57 57 57 56 53 52 51 46 44 44 44 44 43 42 42 41 38 35 35 36 35 34 33 32 32 34 35 31 27 26 24 19 16 15 14 15 17 20 22 26
60 61 62 63 63 64 66 68 69 70 71 72 72 72 73 73 73 74 74 75 76 77 78 77 76 74 71 69 66 62 59 58 57 57 56 55 56 56 54 53 52 49 45 44 44 44 42 40 41 42 41 37 35 35 36 34 33 31 29 30 32 32 27 23 22 20 17 14 12 12 14 17 19 22
61 62 62 63 64 65 67 68 70 70 71 72 72 72 73 73 74 75 75 75 77 78 78 77 75 73 71 68 65 61 58 56 55 55 54 54 54 54 53 52 53 52 48 45 45 45 43 40 39 39 40 39 37 35 35 33 32 31 29 27 29 30 27 22 20 18 16 14 11 9 11 15 17 20
62 62 63 64 65 66 68 69 70 71 72 72 73 72 73 73 74 75 75 76 77 79 79 78 75 73 70 67 63 61 57 55 53 53 52 52 52 52 50 49 50 51 49 47 46 47 46 43 39 37 37 38 38 36 34 33 31 31 30 28 28 29 27 23 19 17 15 12 9 8 9 13 16 18
62 62 63 64 65 67 68 70 71 71 72 73 73 73 73 73 74 75 76 77 78 79 79 77 75 71 68 65 62 59 56 53 52 51 51 50 50 50 48 46 47 48 47 45 45 47 48 47 43 39 36 35 35 36 35 34 32 31 30 29 29 30 29 25 20 17 15 11 8 7 8 11 14 17
62 63 64 65 66 67 69 70 71 72 73 73 74 74 74 74 75 76 76 78 79 80 79 77 73 69 66 63 60 57 55 52 50 49 49 48 48 49 48 45 44 45 45 43 42 44 47 48 47 44 40 37 35 35 36 36 35 34 32 30 28 29 30 28 23 18 15 12 8 7 8 9 12 16
62 63 64 65 66 68 69 71 72 72 73 74 74 74 75 75 75 76 78 79 80 80 78 75 70 67 64 61 58 55 52 50 48 47 46 46 46 47 46 44 42 42 42 42 40 41 42 44 46 46 45 42 39 37 37 38 37 36 34 31 29 28 29 29 26 20 15 12 9 7 7 8 10 14
63 64 64 66 67 68 69 71 72 73 74 75 75 75 76 76 76 77 79 80 81 80 76 71 67 64 62 59 56 53 50 47 46 45 44 44 45 45 45 43 42 41 40 40 39 39 39 41 41 42 43 43 41 39 37 35 35 35 34 32 31 29 27 26 27 23 17 12 9 7 7 7 9 13
63 64 65 66 67 68 70 71 72 73 75 75 75 76 76 77 77 79 80 81 80 78 73 68 64 62 59 57 54 51 47 45 43 43 42 42 43 43 43 42 41 40 39 39 38 38 38 39 39 39 39 40 40 39 37 35 34 34 33 32 31 30 26 22 23 23 19 13 10 8 6 7 8 12
63 64 65 67 68 69 70 71 72 74 75 75 75 76 77 77 79 80 81 80 77 73 68 65 62 59 57 54 50 47 45 43 41 41 41 41 41 41 42 41 40 40 39 38 37 37 37 38 38 37 37 37 37 36 36 35 34 33 33 31 30 28 25 20 19 20 19 15 11 8 7 7 9 11
64 64 65 67 68 69 70 72 74 75 74 75 75 76 77 78 79 80 80 77 72 67 65 63 60 56 53 50 47 45 43 40 39 39 39 39 39 40 40 39 39 39 39 38 37 36 36 37 38 37 36 35 34 32 31 31 31 30 29 29 27 25 24 21 18 17 17 16 12 8 7 7 9 12
64 65 66 67 68 70 71 73 74 74 74 74 75 76 77 79 80 80 77 72 66 63 62 60 57 53 50 47 44 42 40 38 38 39 39 38 38 38 38 38 37 38 39 39 36 34 34 35 37 37 36 34 34 32 31 29 28 26 25 26 25 24 23 22 20 16 15 15 12 9 7 7 9 12
65 66 67 68 69 71 72 73 73 73 74 74 74 76 77 79 79 78 72 65 62 61 60 57 53 50 47 44 41 40 38 37 37 38 38 38 38 37 37 37 36 37 38 38 37 35 33 33 35 36 36 35 34 33 32 31 29 28 27 27 26 25 23 21 21 18 15 13 12 10 8 7 8 11
66 67 68 69 70 71 73 73 73 73 73 73 74 76 77 78 77 73 66 60 59 58 56 53 50 47 44 41 39 38 37 37 37 37 37 37 37 37 37 36 35 36 37 38 38 36 34 33 34 35 35 35 34 33 33 32 32 32 30 28 27 26 24 21 20 19 17 14 12 11 9 7 8 10
67 68 68 69 71 72 73 73 73 73 72 73 74 75 77 77 73 67 60 58 57 55 52 49 47 44 42 40 38 38 37 37 37 37 37 37 37 37 37 36 35 35 36 37 37 36 35 34 34 34 35 35 34 34 33 33 31 31 30 29 28 26 25 22 20 18 17 15 13 11 10 8 8 10
67 68 69 70 72 72 72 72 73 72 72 73 74 75 75 73 68 61 57 56 55 52 49 46 44 42 40 39 38 38 37 37 37 37 37 37 37 37 37 36 34 34 35 36 36 36 35 35 34 34 34 35 35 35 34 33 32 30 29 29 28 27 25 23 20 18 16 15 13 11 9 8 8 9
67 68 70 71 72 72 72 72 72 72 72 73 74 75 73 69 63 58 55 54 53 49 46 44 42 40 39 38 38 38 37 37 38 38 38 37 37 37 36 35 34 34 35 35 35 35 35 36 35 35 35 35 35 35 34 33 32 31 29 27 26 25 25 24 22 19 17 15 13 12 10 8 8 9
Wind_Direction
305 306 306 307 308 310 312 313 314 314 315 315 315 316 317 318 318 319 320 321 322 323 323 322 322 322 322 322 322 322 324 325 326 325 324 324 326 328 328 329 327 326 325 325 324 323 321 319 318 317 315 311 308 304 303 305 305 298 294 292 291 287 278 267 256 249 244 237 230 228 225 222 220 216
306 306 308 309 310 312 313 314 314 315 316 316 316 317 318 319 320 320 321 323 323 324 323 322 323 324 324 324 324 325 326 327 328 327 327 328 328 329 330 330 328 327 327 327 326 324 322 322 321 320 318 315 311 306 304 305 304 296 292 291 291 287 277 269 259 250 244 237 229 226 223 220 218 215
306 308 309 311 313 314 314 315 316 316 317 317 318 319 319 320 320 321 322 323 323 324 324 324 325 325 325 326 326 327 328 329 330 330 330 330 329 330 331 331 329 329 329 328 327 325 325 325 325 324 321 317 312 307 304 305 302 295 291 290 290 285 276 269 262 251 243 235 228 224 221 218 216 214
308 310 312 313 314 314 315 316 317 317 318 319 319 320 320 321 322 323 323 323 324 325 325 326 327 327 327 327 328 329 330 331 331 331 331 330 330 330 331 332 331 330 329 329 328 327 328 328 327 326 323 319 315 310 306 305 302 296 291 290 289 283 275 269 263 252 242 234 226 222 219 215 213 213
310 312 313 314 315 316 317 318 318 319 319 320 320 321 321 322 323 324 324 325 325 326 327 328 328 328 328 329 329 330 332 332 332 331 330 330 330 330 332 332 331 330 330 329 328 329 329 329 328 328 326 323 320 315 310 306 303 298 292 289 288 282 273 267 262 252 241 233 226 221 217 213 211 211
312 314 315 315 316 317 318 319 320 320 320 321 321 322 322 324 325 325 326 326 327 327 328 328 329 329 329 330 330 332 333 332 331 330 330 330 330 330 332 332 331 331 329 329 329 330 331 330 331 332 331 328 325 321 315 310 306 301 293 288 286 280 271 265 260 250 240 233 226 219 215 211 210 210
314 315 316 317 318 319 320 321 321 321 322 322 322 322 324 325 326 326 327 327 328 328 329 329 329 329 330 331 332 333 332 330 329 329 330 330 330 331 332 332 331 330 329 329 331 332 332 333 334 335 334 331 328 323 317 312 307 302 295 287 283 278 269 263 258 248 238 232 225 218 213 210 210 209
316 317 318 319 320 321 322 322 322 322 323 323 323 324 325 326 326 327 327 328 328 329 329 330 330 330 331 332 333 332 331 329 329 329 330 330 330 330 331 331 331 331 330 332 333 334 334 335 335 335 334 331 329 324 319 314 309 304 297 286 280 276 268 260 256 248 237 230 224 217 212 209 209 209
317 318 319 320 321 322 323 323 323 323 323 323 324 325 325 326 327 327 328 328 329 329 329 330 330 331 332 332 332 331 330 329 329 330 330 330 330 330 331 331 331 332 333 333 334 334 334 334 334 334 333 330 329 326 321 315 310 305 299 288 278 274 269 259 254 248 238 230 224 217 211 208 208 208
318 319 320 321 322 323 323 324 324 324 324 324 325 325 326 327 327 327 328 328 329 329 330 330 331 331 331 331 331 330 329 329 329 330 330 329 330 331 332 332 332 333 334 334 333 334 333 332 333 334 333 331 329 328 323 317 311 306 302 294 280 271 268 260 251 246 238 230 224 217 211 208 208 207
318 319 320 322 323 324 324 324 324 324 324 324 325 326 327 327 327 327 328 329 329 329 330 330 331 331 331 331 330 330 329 329 329 330 329 329 330 331 332 332 333 333 333 333 332 333 333 332 333 335 334 331 329 328 325 319 312 307 304 299 286 271 266 260 251 244 238 230 224 218 212 208 208 207
318 320 321 322 323 324 324 324 324 324 324 325 325 326 327 327 327 328 328 328 329 330 330 330 331 331 331 331 330 330 329 329 330 330 329 329 330 331 332 333 332 332 332 332 332 332 333 333 334 335 334 330 328 327 325 321 314 309 305 301 293 276 264 260 252 243 237 231 224 218 213 209 208 207
318 320 321 322 323 323 324 323 323 324 324 325 326 327 327 327 327 328 328 328 329 330 330 330 330 331 331 331 331 330 330 329 329 329 329 329 331 332 333 332 332 332 332 331 331 332 333 333 333 334 332 329 327 326 324 322 317 311 306 301 296 284 266 258 253 244 236 231 224 218 213 209 208 207
318 320 321 322 322 323 323 323 323 323 324 325 326 326 326 326 327 328 328 328 329 330 330 330 330 331 332 331 331 330 329 329 329 329 329 330 332 332 332 332 332 333 332 331 331 332 333 333 332 332 331 328 326 326 325 324 322 317 310 302 295 287 272 256 252 246 237 231 226 219 214 210 208 207
318 319 320 321 321 321 322 322 323 323 324 325 326 326 326 326 327 327 327 328 329 329 329 330 331 332 332 331 331 329 328 328 329 329 329 330 331 331 331 331 332 332 332 331 331 330 331 331 330 331 331 328 327 327 327 325 325 322 316 307 295 287 277 261 251 247 240 233 228 222 216 211 209 208
317 318 319 320 320 320 321 321 322 324 325 326 326 325 325 326 326 327 327 328 328 329 329 330 331 332 332 331 330 329 329 329 330 329 329 329 330 331 331 331 332 332 332 331 330 329 329 329 330 332 332 330 328 328 329 328 326 325 321 312 301 290 280 268 255 247 242 236 230 226 220 214 211 209
315 317 318 318 318 319 320 321 322 324 325 325 325 324 325 325 326 326 327 327 328 328 329 331 332 332 331 330 329 329 330 330 330 329 328 328 330 331 332 332 332 332 331 331 330 330 329 329 330 332 333 331 330 329 330 329 327 327 325 318 309 297 284 274 262 250 243 238 232 227 223 217 213 211
314 316 317 317 318 319 320 320 322 324 325 325 324 324 324 325 325 326 326 327 328 328 330 331 332 332 331 330 330 330 330 330 329 328 328 328 329 331 332 333 333 332 332 331 332 331 331 329 329 332 334 333 331 330 330 330 329 328 328 326 319 308 292 278 267 255 245 239 233 228 225 220 215 212
314 315 316 316 317 318 318 319 322 324 324 324 324 324 324 324 324 325 326 326 327 328 330 331 331 331 331 330 330 331 331 330 329 328 327 328 329 330 332 334 335 333 332 333 333 333 332 330 329 331 334 334 332 331 331 331 330 329 328 329 327 319 306 286 270 259 248 240 235 230 226 222 217 214
313 314 314 315 316 317 317 319 321 323 323 323 323 323 323 323 324 325 326 326 327 328 330 331 331 332 331 330 330 331 331 330 329 328 328 329 330 331 333 335 336 334 333 334 334 334 334 332 330 329 332 334 333 333 333 332 330 329 328 328 329 326 317 299 275 260 251 243 237 233 229 225 220 216
312 312 313 313 315 316 316 318 321 322 322 322 322 323 323 323 324 325 326 326 327 328 330 331 331 332 331 330 330 331 330 329 328 328 328 329 330 331 333 335 335 334 333 334 335 335 335 334 332 330 330 332 334 335 335 333 330 329 326 326 328 329 324 310 285 261 250 246 240 235 231 227 223 218
310 311 312 312 314 315 316 318 320 321 321 321 322 322 323 323 324 325 326 326 327 328 330 331 331 332 331 330 330 330 329 328 327 328 328 329 330 331 332 334 335 334 333 335 336 336 335 335 333 331 330 330 332 335 337 334 330 328 326 324 326 328 327 316 297 271 253 247 243 238 233 229 225 221
308 309 310 311 313 315 316 318 319 320 320 321 321 322 322 323 324 325 326 326 327 328 329 330 331 331 330 330 330 329 328 327 327 327 328 329 330 331 332 334 335 335 335 336 337 337 336 334 332 331 330 329 330 331 334 335 332 328 325 323 324 326 326 320 304 283 262 250 245 242 237 231 227 223
307 308 309 311 312 314 316 318 319 319 320 320 321 321 322 323 324 325 326 326 327 328 329 330 331 331 330 329 329 329 327 326 327 327 327 328 330 331 332 333 335 336 335 335 336 337 336 334 332 330 330 331 330 329 330 333 333 328 324 322 322 324 325 322 313 294 270 254 248 244 240 233 228 224
306 308 309 311 312 314 316 317 317 318 319 320 320 321 322 323 324 325 325 326 327 328 328 329 330 330 329 329 328 328 326 326 326 327 327 328 330 332 332 332 334 335 334 335 336 337 337 336 334 332 331 332 333 332 331 332 333 330 325 322 321 322 322 320 317 305 278 259 251 246 242 235 229 225
306 307 309 310 312 314 316 316 316 317 318 319 320 321 321 322 323 324 325 326 326 327 328 329 330 329 328 328 327 327 326 325 326 326 326 327 329 331 331 331 333 335 334 335 337 337 338 338 336 334 332 331 333 335 334 333 333 331 328 323 322 323 321 318 315 307 286 264 254 249 243 236 229 224
306 307 308 310 312 314 315 315 315 316 317 318 319 320 321 322 323 324 325 325 325 326 327 328 328 328 327 326 326 326 325 325 325 326 326 326 327 329 329 330 332 335 335 336 337 338 338 338 337 336 334 332 333 336 337 335 333 331 328 324 323 324 322 319 316 306 289 271 257 252 245 237 229 223
305 306 308 310 312 313 313 314 315 316 317 318 319 320 320 321 322 324 324 324 324 325 326 327 327 326 325 325 325 325 324 324 324 324 325 324 325 327 329 329 331 335 336 336 337 338 338 339 339 337 336 334 334 336 337 336 334 332 330 326 325 326 326 322 318 308 293 279 263 253 247 238 229 223
305 306 307 310 311 312 312 313 314 315 316 317 318 319 320 321 322 323 323 323 323 324 325 326 325 324 324 323 324 323 323 323 322 323 323 323 323 326 328 328 329 333 336 336 336 338 340 341 340 338 337 337 337 336 337 337 336 335 332 327 325 328 329 325 320 312 301 287 271 257 248 239 230 224
304 305 307 309 310 311 311 312 313 314 315 316 318 319 319 320 321 322 322 322 323 323 324 324 324 323 322 322 322 322 321 321 320 321 322 322 322 324 327 328 329 332 335 336 336 337 339 342 342 340 338 339 339 338 338 338 337 336 335 331 328 329 332 330 323 317 309 296 279 261 248 238 230 223
304 305 306 308 309 310 310 311 312 313 315 316 317 318 319 320 320 321 321 321 322 322 322 323 322 322 321 320 320 319 319 318 318 319 320 321 321 322 325 327 328 330 332 335 335 336 337 341 344 342 340 339 339 338 337 338 339 338 338 337 333 331 333 333 328 322 313 301 285 263 246 236 228 220
303 304 306 308 308 309 310 311 312 313 314 315 316 317 318 319 319 319 320 320 321 321 321 321 321 320 319 318 318 317 316 316 316 317 318 319 319 320 323 326 327 328 330 333 334 335 336 339 342 344 342 340 337 336 337 339 341 342 342 343 341 337 336 338 336 328 317 303 286 263 243 234 228 218
302 304 306 306 307 308 309 310 311 312 314 315 316 316 317 318 318 319 319 319 320 320 320 320 319 318 317 316 316 315 314 314 315 316 317 317 317 318 321 324 325 326 328 331 333 334 335 336 338 341 343 341 337 336 338 340 342 345 346 348 347 344 340 341 342 336 324 310 289 263 241 233 230 221
302 303 305 305 307 308 309 310 311 312 313 314 315 316 316 317 318 318 318 319 319 319 319 318 317 316 315 314 314 313 313 313 313 314 315 315 315 316 319 322 324 325 326 329 332 334 334 334 335 338 340 341 341 340 340 340 342 345 346 348 351 349 344 341 343 342 333 317 297 267 244 234 233 224
301 302 304 305 306 307 308 309 310 312 313 314 314 315 316 317 317 317 318 318 318 318 317 317 316 315 314 313 312 311 311 311 311 312 313 313 313 314 316 319 322 324 325 327 330 332 332 333 334 336 337 339 342 343 342 341 340 342 343 345 349 352 347 340 339 342 338 323 302 274 247 236 233 226
301 302 303 304 306 307 308 309 310 311 313 313 314 315 316 316 317 317 317 318 317 317 316 315 314 313 312 311 310 310 310 309 309 310 311 311 311 312 314 318 321 323 324 326 328 330 330 331 333 334 336 337 339 341 340 338 336 337 339 342 345 348 346 339 335 337 339 332 313 286 254 235 229 223
300 302 303 304 305 307 308 309 310 311 312 313 314 315 315 316 316 317 317 317 317 316 315 314 313 311 310 309 308 308 308 307 307 308 308 308 309 310 313 317 320 322 323 324 326 327 328 329 331 333 335 336 337 337 337 336 335 336 338 340 341 341 340 338 334 333 336 337 326 303 268 236 222 218
300 302 303 304 305 307 307 308 309 310 311 312 314 315 315 316 316 316 317 316 315 314 313 312 311 309 308 307 307 306 305 305 306 306 306 306 308 309 312 316 319 321 322 322 323 325 326 327 329 332 334 335 335 335 335 336 335 334 334 334 334 332 333 336 337 334 333 335 331 315 286 248 222 213
301 302 303 304 305 306 307 308 309 311 312 313 314 315 315 315 315 315 316 315 314 313 312 310 309 308 307 306 306 304 304 303 303 303 304 305 307 309 312 315 318 320 320 320 321 323 325 326 328 330 332 332 331 332 334 334 332 328 325 324 326 328 330 335 340 338 332 331 330 319 295 263 231 213
301 302 303 304 305 305 307 308 310 311 312 313 314 314 314 314 314 315 315 314 313 312 311 309 308 307 306 305 304 303 302 302 301 302 303 304 306 308 311 314 317 319 317 316 318 320 323 324 325 326 328 330 330 331 332 331 328 323 320 321 325 331 334 335 338 340 336 332 329 321 302 271 241 220
300 301 302 304 305 306 307 309 310 311 312 313 313 313 313 314 314 314 314 313 312 311 310 309 307 306 306 305 303 301 300 300 300 301 302 304 305 308 311 314 317 317 315 314 315 318 320 321 322 323 326 329 330 331 331 330 329 328 327 327 328 331 333 334 335 337 337 334 330 324 309 280 250 228
300 301 303 304 305 306 308 308 309 310 312 312 313 313 313 313 314 314 314 313 312 312 310 308 307 306 305 304 302 300 299 299 299 300 302 304 305 308 311 313 315 315 313 312 313 315 318 320 321 323 325 327 328 329 330 331 332 331 329 327 325 325 327 331 333 334 334 334 331 325 313 290 259 236
300 301 303 304 305 307 307 308 309 310 311 311 312 312 313 314 314 314 313 313 313 312 310 308 307 306 305 304 302 300 299 299 299 300 302 304 306 308 310 312 313 313 311 310 310 313 316 318 320 321 323 325 326 327 328 329 329 328 326 324 322 321 322 325 328 330 330 331 329 325 316 300 274 246
300 301 303 304 305 306 307 308 309 310 310 311 312 313 315 315 314 313 313 314 314 312 309 307 306 306 305 304 301 300 300 299 300 301 303 305 306 307 308 310 311 311 309 308 309 311 313 315 317 319 322 324 325 325 325 326 326 325 324 321 319 316 316 318 320 323 324 325 324 321 314 302 284 261
300 301 303 304 305 306 307 308 309 309 310 312 313 315 316 315 314 313 315 316 315 312 309 307 305 305 304 302 300 299 299 300 300 302 303 304 305 306 306 308 309 308 306 306 307 309 312 314 316 318 320 321 321 321 322 323 323 322 321 318 315 313 311 312 314 316 318 319 321 319 312 301 286 270